#timestamp,LO_Frequency,Hit,StdDev 
1512421215.1,286047002.1,N
1512421235.9,286047001.1,N
1512421255.7,286046998.6,N
1512421275.5,286046999.8,N
1512421295.4,286046999.3,N
1512421315.2,286047002.4,N
1512421335.1,286047002.8,N
1512421336.0,286047002.8,N
1512421355.8,286047002.4,N
1512421375.6,286047004.4,N
1512421395.5,286047001.3,N
1512421415.3,286047003.0,N
1512421435.1,286047005.5,N
1512421455.9,286047005.7,N
1512421475.7,286047004.1,N
1512421495.6,286047004.0,N
1512421515.4,286047005.7,N
1512421535.2,286047004.4,N
1512421555.1,286047004.3,N
1512421556.0,286047004.3,N
1512421575.8,286047002.5,N
1512421595.6,286046999.8,N
1512421615.5,286046999.4,N
1512421635.3,286046998.4,N
1512421655.2,286046998.2,N
1512421675.9,286046999.8,N
1512421695.7,286046998.4,N
1512421715.6,286046998.6,N
1512421735.4,286046998.0,N
1512421755.2,286046998.0,N
1512421775.1,286046993.3,N
1512421776.0,286046993.3,N
1512421795.8,286046995.7,N
1512421815.7,286046997.6,N
1512421835.5,286046995.8,N
1512421855.3,286046994.8,N
1512421875.2,286046995.4,N
1512421895.0,286046998.8,N
1512421895.9,286046998.8,N
1512421915.8,286046999.3,N
1512421935.6,286046997.2,N
1512421955.4,286046998.0,N
1512421975.3,286046999.4,N
1512421995.1,286046998.5,N
1512422015.8,286046999.7,N
1512422035.7,286047003.7,N
1512422055.5,286046999.8,N
1512422075.4,286047001.9,N
1512422095.2,286047004.0,N
1512422115.0,286047004.0,N
1512422115.9,286047004.0,N
1512422135.8,286047004.0,N
1512422155.6,286047005.6,N
1512422175.4,286047004.4,N
1512422195.3,286047002.7,N
1512422215.1,286047001.2,N
1512422235.9,286047000.2,N
1512422255.7,286047004.3,N
1512422275.5,286047003.8,N
1512422295.4,286047004.2,N
1512422315.2,286046999.7,N
1512422335.1,286047002.6,N
1512422336.0,286047002.6,N
1512422355.8,286047002.8,N
1512422375.6,286047002.0,N
1512422395.5,286047002.6,N
1512422415.3,286047002.0,N
1512422435.1,286046998.3,N
1512422455.9,286046998.2,N
1512422475.7,286047000.0,N
1512422495.6,286047002.1,N
1512422515.4,286047002.5,N
1512422535.2,286047000.0,N
1512422555.1,286047001.3,N
1512422556.0,286047001.3,N
1512422575.8,286047005.9,Y
1512422595.6,286047001.6,P
1512422615.5,286046999.7,N
1512422635.3,286047000.0,N
1512422655.2,286046999.3,N
1512422705.9,286046996.5,E
1512422715.8,286046998.2,N
1512422735.7,286047002.0,P
1512422755.5,286047004.3,N
1512422775.4,286047003.3,N
1512422795.2,286047005.4,N
1512422815.0,286047007.5,Y
1512422815.9,286047007.5,P
1512422835.8,286047005.9,N
1512422855.6,286047001.4,N
1512422875.5,286047004.3,N
1512422895.3,286047002.9,N
1512422915.1,286047003.1,N
1512422935.9,286047001.4,N
1512422955.7,286047004.1,N
1512422975.5,286047002.6,N
1512422995.4,286047002.1,N
1512423015.2,286047002.7,N
1512423035.1,286046996.9,N
1512423036.0,286046996.9,N
1512423055.8,286046999.2,N
1512423075.6,286046998.1,N
1512423095.5,286046997.6,N
1512423115.3,286046994.8,N
1512423135.1,286046992.9,N
1512423155.9,286046993.9,N
1512423175.7,286046995.0,N
1512423195.6,286047000.7,N
1512423215.4,286046998.1,N
1512423235.2,286046997.0,N
1512423255.1,286047000.7,N
1512423256.0,286047000.7,N
1512423275.8,286047002.5,N
1512423295.7,286047002.7,N
1512423315.5,286047000.9,N
1512423335.3,286047000.3,N
1512423355.2,286047000.7,N
1512423375.0,286047002.1,N
1512423375.9,286047002.1,N
1512423395.7,286047002.6,N
1512423415.6,286047000.1,N
1512423435.4,286046999.3,N
1512423455.3,286046996.5,N
1512423475.1,286047000.7,N
1512423476.0,286047000.7,N
1512423495.8,286047000.0,N
1512423515.7,286047002.1,N
1512423535.5,286047001.8,N
1512423555.3,286047002.7,N
1512423575.2,286047001.7,N
1512423595.0,286047003.8,N
1512423595.9,286047003.8,N
1512423615.8,286047001.6,N
1512423635.6,286047001.5,N
1512423655.4,286047001.9,N
1512423675.3,286047001.8,N
1512423695.1,286047002.3,N
1512423715.9,286047003.8,N
1512423735.7,286047000.9,N
1512423755.5,286047004.0,N
1512423775.4,286047003.7,N
1512423795.2,286046998.5,N
1512423815.0,286047000.5,N
1512423815.9,286047000.5,N
1512423835.8,286047001.2,N
1512423855.6,286046998.2,N
1512423875.5,286046999.2,N
1512423895.3,286046993.8,Y
1512423915.2,286046992.0,P
1512423935.9,286046993.0,N
1512423955.7,286046990.6,N
1512423975.6,286046992.0,N
1512423995.4,286046995.0,N
1512424015.2,286046999.3,N
1512424035.1,286046993.8,N
1512424036.0,286046993.8,N
1512424055.8,286046996.4,N
1512424075.7,286046993.0,N
1512424095.5,286046990.7,N
1512424115.3,286046994.1,N
1512424135.2,286046997.6,N
1512424155.0,286046995.1,N
1512424155.9,286046995.1,N
1512424175.7,286046999.5,N
1512424195.6,286046995.7,N
1512424215.4,286046996.3,N
1512424235.3,286046992.3,N
1512424255.1,286046992.9,N
1512424256.0,286046992.9,N
1512424275.8,286046994.6,N
1512424295.7,286046995.7,N
1512424315.5,286046995.2,N
1512424335.4,286046990.5,Y
1512424355.2,286046995.4,P
1512424375.0,286047001.2,P
1512424375.9,286047001.2,N
1512424395.8,286047000.5,N
1512424415.6,286046999.7,N
1512424435.4,286047002.1,N
1512424455.3,286047000.9,N
1512424475.1,286046998.0,N
1512424495.9,286046997.2,N
1512424515.7,286046996.3,N
1512424535.5,286046995.9,N
1512424555.4,286046993.8,N
1512424575.2,286046995.7,N
1512424595.0,286046995.3,N
1512424595.9,286046995.3,N
1512424615.8,286046993.7,N
1512424635.6,286046992.8,N
1512424655.5,286046994.2,N
1512424675.3,286046996.1,N
1512424695.1,286046999.2,N
1512424715.9,286046998.2,N
1512424735.7,286047000.9,N
1512424755.6,286047002.7,N
1512424775.4,286047002.8,N
1512424795.2,286047002.3,N
